EHI
53 52 50 48 43 38 35 34 37 37 35 31 26 23 20 19 18 19 19 18 15 13 12 11 11 12 14 16 16 14 12 10 9 7 5 5 6 6 5 4 2 1 1
56 54 50 47 45 41 38 35 36 37 34 30 26 24 22 20 18 18 19 17 14 11 10 9 9 11 13 14 14 13 11 9 9 8 5 4 5 6 5 4 2 2 2
60 58 53 49 47 44 40 36 35 35 33 29 27 26 24 21 19 17 17 16 14 12 10 8 8 9 11 11 10 10 9 7 7 8 5 3 4 5 5 3 1 1 1
63 60 56 52 49 46 40 35 33 33 31 29 28 26 23 20 18 16 15 15 15 13 11 10 9 9 9 9 8 8 7 6 6 6 5 3 3 4 4 2 0 0 0
62 60 57 54 51 46 40 36 33 31 29 29 30 27 22 17 15 13 13 13 12 10 9 9 9 9 9 8 7 6 6 5 5 4 3 3 2 2 2 0 0 0 0
62 61 59 55 51 45 40 36 34 30 29 30 32 30 23 15 10 9 10 11 9 7 7 6 6 7 7 6 5 4 3 4 3 2 1 1 1 1 0 0 0 0 0
64 64 61 56 51 46 40 36 33 31 29 31 33 32 24 14 6 5 6 8 7 6 5 4 3 3 3 5 4 2 2 2 2 1 1 1 1 1 1 0 0 0 0
65 64 61 58 54 49 43 38 34 32 29 29 31 31 24 13 5 3 3 5 7 6 5 4 3 2 2 3 3 2 2 2 2 2 2 2 1 1 1 0 0 0 0
66 64 61 59 57 53 47 41 37 33 29 27 29 29 23 13 5 2 1 3 5 6 6 6 6 4 1 1 1 2 2 2 2 2 2 1 0 0 0 0 0 0 0
64 63 60 58 56 54 48 43 39 35 30 27 26 24 19 11 5 1 1 2 4 6 8 9 7 4 1 0 1 2 2 1 1 2 1 0 0 0 0 0 0 0 0
60 59 57 54 52 50 47 43 39 34 29 27 25 21 16 9 4 1 1 2 3 6 8 9 7 3 0 0 1 2 2 2 1 2 2 1 0 0 0 0 0 0 0
57 55 53 50 48 46 44 40 36 31 27 26 24 21 16 9 4 1 0 1 2 4 7 7 5 1 0 0 0 1 1 2 2 3 2 1 0 0 0 0 0 0 0
55 52 49 47 45 43 41 37 31 28 25 24 22 20 16 10 6 4 2 0 0 2 4 4 2 0 0 0 0 0 1 2 3 3 3 1 0 0 0 0 0 0 0
51 48 44 42 41 40 38 32 26 22 20 20 18 16 13 10 8 6 4 2 1 1 1 1 0 0 0 0 0 0 1 3 3 3 3 2 1 1 1 1 0 0 0
46 42 36 34 35 35 32 26 18 13 12 12 12 11 9 7 5 4 4 3 2 1 0 0 0 0 0 0 0 1 3 4 4 4 4 4 2 1 2 2 1 1 0
41 36 30 28 29 30 28 21 12 6 5 5 5 6 5 4 2 1 2 2 2 1 0 0 0 0 0 0 0 2 3 3 3 4 5 4 3 2 2 3 3 2 1
37 32 26 23 23 25 24 18 12 6 3 2 2 2 1 1 0 0 0 1 1 1 0 0 1 1 1 0 0 2 3 3 3 4 4 4 3 3 3 3 3 2 2
31 27 23 20 19 19 18 16 12 9 6 4 3 1 0 0 0 0 0 0 0 0 0 1 2 2 2 1 1 1 2 3 3 3 3 3 3 3 3 3 2 1 1
25 23 20 18 16 14 14 14 12 10 7 6 4 2 1 0 0 0 0 0 0 0 0 1 2 3 3 2 1 0 1 2 3 3 3 3 3 3 3 3 2 1 0
19 17 16 15 13 11 11 12 12 10 7 6 5 3 1 0 0 0 0 0 0 0 0 0 1 2 3 2 1 0 0 1 1 3 3 3 3 3 3 3 3 1 0
14 12 10 9 9 9 10 11 11 10 8 6 6 4 2 0 0 0 0 0 0 0 0 0 0 1 2 1 0 0 0 0 1 2 3 3 3 3 3 3 3 2 1
11 9 7 6 6 8 9 9 9 9 7 6 6 4 1 0 0 0 0 0 0 0 0 0 0 0 0 0 0 0 0 0 1 2 3 3 3 3 3 3 3 2 1
5 5 5 4 5 6 6 6 6 7 6 6 5 3 1 1 1 1 1 0 0 0 0 0 0 0 0 0 0 0 0 0 0 1 2 3 3 3 3 3 3 1 0
3 3 4 3 3 4 3 3 4 5 5 4 4 3 2 2 2 1 1 1 1 0 0 0 0 0 0 0 0 0 0 0 0 0 1 2 2 3 3 3 2 1 0
5 4 3 3 2 2 2 2 3 4 4 3 3 3 3 3 2 1 1 1 1 0 0 0 0 0 0 0 0 0 0 0 0 0 1 2 1 2 3 3 1 0 0
6 5 3 2 1 2 3 3 3 4 3 2 2 3 3 3 2 2 2 1 0 0 1 1 1 0 0 0 0 0 0 0 0 0 1 2 1 1 3 2 1 0 0
Wind_Speed
6 5 4 5 4 4 2 2 1 1 1 1 1 1 1 1 1 0 0 0 1 1 1 1 1 1 1 1 1 0 1 2 3 2 1 3 3 4 4 3 4 4 4
6 5 5 4 4 3 3 2 2 2 1 1 1 1 1 1 1 1 0 1 1 1 1 1 1 1 1 1 1 1 1 2 3 4 2 2 3 4 4 4 4 4 4
7 6 5 5 4 3 3 3 2 2 2 2 1 2 1 2 1 1 1 1 1 1 1 1 1 1 1 1 1 1 1 2 2 4 3 2 2 3 3 3 4 3 4
8 7 6 5 4 4 3 3 3 2 2 2 2 2 2 2 1 1 1 1 1 1 1 1 2 2 2 1 1 1 1 2 2 3 4 3 2 2 3 2 2 2 3
8 8 7 6 5 4 4 3 2 2 3 2 2 2 1 2 1 2 0 1 1 1 1 2 3 4 5 3 2 2 2 1 2 2 3 3 2 2 2 2 2 2 2
7 7 6 6 5 5 4 4 3 2 2 2 1 1 2 3 4 5 3 1 1 1 1 1 3 4 5 5 5 5 3 2 1 2 2 2 2 2 2 2 2 2 2
6 6 7 6 6 5 5 4 3 3 3 2 2 2 3 4 5 5 4 1 1 1 1 1 1 3 3 2 3 4 4 4 3 2 2 2 2 2 2 2 1 2 1
7 7 7 7 6 5 5 4 4 3 3 2 2 3 4 3 3 3 4 0 1 1 1 1 2 3 2 2 2 3 3 2 2 2 2 1 2 1 1 2 2 1 1
7 6 6 6 6 6 5 5 4 3 3 3 3 3 3 2 1 2 2 1 1 2 2 2 2 3 3 3 2 2 2 2 3 4 4 3 3 2 1 0 1 1 2
6 6 6 6 6 5 5 4 4 4 3 3 3 3 3 3 1 1 1 1 1 2 2 3 3 2 2 1 1 2 2 1 1 2 3 2 2 3 3 2 1 1 1
5 5 6 5 5 5 5 4 4 4 4 3 3 3 3 3 3 1 1 0 0 1 2 2 2 3 1 1 1 1 2 1 1 2 2 2 2 2 2 2 1 1 1
4 5 5 5 5 5 5 5 5 4 4 4 3 3 3 3 3 3 2 1 0 0 1 2 2 3 2 2 1 1 0 1 1 1 1 2 2 2 2 2 1 1 1
4 4 4 4 3 4 5 5 4 4 4 4 4 4 4 3 3 3 4 2 1 0 1 3 3 4 2 2 3 3 2 2 1 1 2 2 2 2 2 2 2 1 1
5 4 4 4 4 4 3 3 4 4 4 4 4 3 3 3 3 3 3 2 2 2 2 2 4 3 2 2 2 3 3 2 2 2 1 2 2 2 2 2 2 2 2
4 4 4 4 4 3 3 1 2 1 2 2 2 3 3 3 3 4 3 2 2 2 2 2 2 3 3 3 3 3 3 2 2 2 2 1 1 1 1 1 1 1 2
4 4 4 4 4 4 4 2 4 2 3 4 2 2 2 3 5 6 5 4 3 3 2 3 3 3 3 3 3 3 3 2 2 2 2 2 1 1 1 1 1 2 2
4 3 3 4 4 5 5 5 3 1 3 3 3 4 5 6 6 6 5 4 3 4 3 4 3 3 3 3 3 2 2 2 2 1 2 2 1 1 2 2 2 2 2
3 3 3 3 3 4 4 4 4 4 3 2 2 4 5 6 6 5 4 3 3 5 5 5 4 3 3 3 3 2 2 2 2 2 2 2 2 2 2 2 2 3 2
3 3 3 3 3 3 3 4 4 4 4 4 3 3 4 4 4 5 5 4 5 5 5 4 4 3 3 2 2 2 2 2 2 2 2 2 2 2 2 2 3 3 3
2 3 4 3 4 3 3 4 4 3 4 3 4 4 5 5 4 4 5 5 5 4 4 4 3 2 1 1 2 2 2 2 2 2 2 2 2 2 2 3 3 3 3
2 3 4 3 3 3 3 3 3 3 3 3 3 4 7 6 6 6 6 5 5 4 4 3 2 2 2 2 2 2 2 2 2 2 2 2 2 2 2 2 3 3 3
2 2 2 2 1 1 1 1 2 2 3 3 3 4 8 5 4 4 4 4 4 4 3 3 3 2 2 2 2 2 2 2 2 2 2 2 2 3 3 3 4 3 3
2 2 2 2 2 2 2 2 2 3 3 3 3 3 5 5 4 3 3 3 3 3 3 3 3 3 3 2 2 2 1 1 1 1 2 2 2 3 3 4 5 4 4
2 3 3 3 2 3 3 3 3 3 3 3 3 3 3 4 4 3 3 2 3 3 3 3 3 3 2 2 2 2 1 1 2 2 3 3 4 4 3 4 5 4 3
3 3 3 3 3 3 3 3 3 3 3 3 3 3 2 3 3 3 3 2 3 3 3 3 2 3 3 3 3 2 2 2 1 2 3 3 4 4 3 4 4 3 3
2 2 2 2 2 2 2 2 2 2 3 2 2 2 2 3 3 3 3 3 3 3 3 3 4 4 4 3 4 4 3 2 1 2 3 3 3 3 3 3 4 4 3
Wind_Direction
165 162 155 158 165 163 156 148 137 129 130 134 138 122 102 73 66 95 140 28 50 39 12 19 348 341 346 346 1 82 134 131 139 135 118 123 123 130 135 145 136 124 115
164 158 153 152 155 160 150 141 143 142 140 127 141 126 125 99 73 46 34 66 57 46 10 1 1 8 6 8 32 70 98 125 145 146 142 148 150 152 161 164 142 132 120
162 155 153 155 154 153 143 144 141 137 128 119 121 117 107 100 97 85 96 86 79 55 21 27 29 19 11 36 61 84 124 128 128 145 151 151 157 164 159 149 128 132 136
162 160 159 158 156 147 142 138 138 140 138 133 123 116 112 107 93 96 117 114 118 99 62 54 48 43 32 20 75 70 102 115 137 146 144 151 153 161 147 155 146 154 148
163 164 162 160 153 149 146 142 138 141 136 131 135 138 127 110 50 16 326 129 119 110 91 83 83 78 67 56 70 72 88 108 138 141 146 146 152 159 177 187 167 169 166
162 161 154 154 155 155 155 153 142 133 119 121 117 92 78 69 48 39 26 63 70 80 86 94 122 109 97 83 76 78 89 121 129 129 149 160 161 168 176 192 165 170 183
162 161 159 163 163 165 165 153 145 139 125 120 113 99 88 67 44 33 25 20 86 64 61 49 74 92 98 92 100 101 81 81 102 133 155 164 153 158 163 180 184 191 192
169 167 167 169 166 162 161 158 154 150 141 128 121 113 107 89 46 24 359 340 108 100 89 68 71 90 63 58 99 103 98 71 76 118 116 103 114 121 155 186 182 153 150
172 169 167 168 167 169 169 165 158 152 144 147 144 130 121 111 55 14 358 262 140 118 108 85 84 93 56 59 106 112 108 113 90 92 98 104 108 117 121 122 174 182 198
175 169 164 167 168 169 165 160 156 154 159 156 143 138 139 134 136 30 343 234 160 141 120 110 88 100 99 70 150 144 134 128 120 128 129 147 170 186 201 205 209 222 206
163 160 161 165 164 161 156 158 158 160 160 157 147 148 147 149 152 145 26 245 138 174 153 141 123 126 123 149 186 152 156 201 225 187 166 170 178 180 197 207 218 230 228
155 159 159 160 172 163 158 162 163 165 167 168 169 172 162 159 159 172 174 177 262 350 98 109 123 141 132 140 140 118 353 287 229 201 176 178 179 184 199 202 208 220 191
147 152 153 160 159 155 168 172 170 175 192 189 186 187 176 165 161 175 182 192 184 96 75 106 141 162 153 174 199 220 238 246 232 220 203 202 197 191 183 188 185 186 225
156 156 159 164 167 160 169 178 186 194 200 197 193 187 178 173 170 175 180 181 175 171 166 156 175 198 236 248 210 216 226 232 233 237 224 212 201 189 188 186 186 186 212
163 161 167 173 172 158 158 143 186 181 215 202 200 189 188 187 181 167 171 172 166 145 163 179 190 196 209 217 217 218 219 213 226 244 247 231 210 193 198 199 188 202 221
173 174 180 183 169 170 169 144 58 77 98 95 102 133 112 131 150 152 156 158 152 149 177 214 216 210 214 217 216 218 219 217 214 231 241 238 232 226 224 210 204 221 231
175 174 180 187 182 187 185 184 176 101 67 86 123 139 147 155 156 160 167 172 171 159 206 227 227 221 218 224 225 220 212 197 200 231 252 255 251 246 237 233 235 236 237
171 174 187 198 197 202 198 198 193 187 187 182 183 175 166 166 169 174 169 167 200 202 221 230 232 222 217 224 223 218 209 192 195 223 239 247 250 252 249 241 239 237 234
184 185 197 207 212 208 201 205 203 193 189 183 170 168 180 174 176 184 178 210 226 223 223 230 236 231 220 209 204 207 211 208 200 219 240 243 243 245 244 248 251 238 230
195 193 203 212 215 208 205 204 200 191 184 190 188 176 168 177 194 197 204 220 228 228 224 231 235 238 243 227 221 223 225 221 210 218 237 247 247 249 257 263 264 255 240
187 191 211 221 216 208 207 213 205 198 195 197 194 184 181 198 208 209 206 214 223 229 225 228 219 222 232 235 227 226 227 223 231 227 228 246 257 256 260 265 266 262 260
196 199 206 223 222 216 226 218 210 218 212 205 192 178 186 211 224 219 211 214 219 225 227 221 220 222 229 234 224 215 218 223 236 238 233 238 247 252 253 256 260 258 258
196 181 189 215 199 187 218 228 222 225 226 222 212 188 189 218 232 231 227 223 212 211 221 221 221 231 225 208 206 191 197 236 252 265 257 255 258 262 259 259 264 263 256
211 200 199 204 202 207 216 221 223 224 222 223 225 224 208 210 230 241 240 227 213 216 219 218 215 225 216 181 175 166 168 217 251 254 257 258 259 257 256 259 263 266 269
224 210 213 211 213 217 218 221 223 222 222 224 227 231 232 216 216 227 231 221 216 218 214 212 218 221 209 190 169 164 177 179 205 282 267 255 259 262 265 270 271 272 266
258 239 236 233 238 242 233 230 233 238 239 236 237 231 228 230 225 222 226 221 219 216 212 217 222 209 187 185 174 164 159 169 204 267 278 269 264 267 275 269 268 267 263